Regional Weather Roundup
Issued by NWS Memphis, TN

Home | Current Version | Previous Version | Text Only | Print | Product List | Glossary On
Versions: 1 2 3 4 5 6 7 8 9 10 11 12 13 14 15 16 17 18 19 20 21 22 23 24 25 26 27 28 29 30 31 32 33 34 35 36 37 38 39 40 41 42 43 44 45 46 47 48 49 50
000
ASUS44 KMEG 250010
RWRMEG
MEMPHIS CWA HOURLY WEATHER ROUNDUP
NATIONAL WEATHER SERVICE MEMPHIS TN
700 PM CDT WED MAY 24 2017

...WEST TENNESSEE...

CITY           SKY/WX    TMP DP  RH WIND       PRES   REMARKS
MEMPHIS INTL   PTSUNNY   60  52  74 W8        29.61S
6HR MIN TEMP:  59; 6HR MAX TEMP:  72; 6HR PCP:  0.07;

NWS MEMPHIS      N/A     62 N/A N/A MISG        N/A
JACKSON        SUNNY     63  49  60 NW10G22   29.57R
6HR MIN TEMP:  63; 6HR MAX TEMP:  71; 6HR PCP:  0.01;

COVINGTON      SUNNY     61  48  63 W8        29.58S
BOLIVAR        SUNNY     63  48  59 W9G16     29.58R
LEXINGTON      MOSUNNY   63  52  67 MISG      29.55S
SELMER         PTSUNNY   59  55  88 S8        29.56R
SAVANNAH       CLEAR     64  54  68 SW5       29.55S
DYERSBURG        N/A    N/A N/A N/A MISG        N/A
UNION CITY     PTSUNNY   61  52  72 W8G15     29.55R
PARIS          SUNNY     63  55  77 SW7       29.53S
HUNTINGDON     SUNNY     61  55  82 W6        29.54S


...EASTERN ARKANSAS...

CITY           SKY/WX    TMP DP  RH WIND       PRES   REMARKS
JONESBORO      MOSUNNY   64  50  60 W13G21    29.60S
6HR MIN TEMP:  55; 6HR MAX TEMP:  70; 6HR PCP:  0.11;

WEST MEMPHIS   PTSUNNY   63  54  72 VRB6      29.60S
6HR MIN TEMP:  57; 6HR MAX TEMP:  69; 6HR PCP:  0.07;

BATESVILLE     MOSUNNY   61  46  59 W7        29.65R
6HR MIN TEMP:  59; 6HR MAX TEMP:  70;

WALNUT RIDGE   SUNNY     64  46  52 CALM      29.61R
6HR MIN TEMP:  57; 6HR MAX TEMP:  68; 6HR PCP:  0.04;

BLYTHEVILLE    PTSUNNY   63  52  67 W15       29.59R
6HR MIN TEMP:  58; 6HR MAX TEMP:  73; 6HR PCP:  0.01;

SEARCY         CLOUDY    65  50  58 N9        29.66R
6HR MIN TEMP:  57; 6HR MAX TEMP:  69; 6HR PCP:  0.20;

STUTTGART      CLOUDY    64  43  45 NW10      29.64S
6HR MIN TEMP:  64; 6HR MAX TEMP:  72;

PINE BLUFF     PTSUNNY   67  48  50 W17G23    29.65S
6HR MIN TEMP:  65; 6HR MAX TEMP:  70;

MONTICELLO     MOSUNNY   68  51  54 W7        29.66S
6HR MIN TEMP:  66; 6HR MAX TEMP:  70;



...NORTH MISSISSIPPI...

CITY           SKY/WX    TMP DP  RH WIND       PRES   REMARKS
TUPELO         CLOUDY    57  53  86 SW6       29.61S
6HR MIN TEMP:  56; 6HR MAX TEMP:  69; 6HR PCP:  0.24;

OXFORD         MOSUNNY   57  55  94 W6        29.65R
BATESVILLE     LGT RAIN  59  54  82 W3        29.64S
6HR MIN TEMP:  58; 6HR MAX TEMP:  71; 6HR PCP:  0.71;

OLIVE BRANCH   PTSUNNY  N/A N/A N/A W6        29.59S
TUNICA         CLOUDY    59  52  77 W10       29.64S
CLARKSDALE       N/A     61  55  82 MISG      29.65S
CORINTH        RAIN      59  54  82 W10       29.59R
GREENWOOD      CLOUDY    59  56  89 N6        29.65S
6HR MIN TEMP:  58; 6HR MAX TEMP:  71; 6HR PCP:  0.15;

COLUMBUS       CLOUDY    60  59  97 W3        29.62R
6HR MIN TEMP:  60; 6HR MAX TEMP:  70; 6HR PCP:  0.10;

STARKVILLE     LGT RAIN  59  54  82 W5        29.64S
GOLDEN TRIANGL CLOUDY    61  52  72 W7        29.59R


...SOUTHEAST MISSOURI...

CITY           SKY/WX    TMP DP  RH WIND       PRES   REMARKS
KENNETT        PTSUNNY   64  54  68 VRB3      29.58R
MALDEN         SUNNY     64  46  52 NW6       29.59R
WEST PLAINS    SUNNY     60  47  61 NW10      29.65R
6HR MIN TEMP:  56; 6HR MAX TEMP:  65;

POPLAR BLUFF   PTSUNNY   61  51  70 NW5       29.59R
6HR MIN TEMP:  61; 6HR MAX TEMP:  69; 6HR PCP: TRACE;

CAPE GIRARDEAU MOSUNNY   63  48  58 W13       29.55R
6HR MIN TEMP:  63; 6HR MAX TEMP:  69; 6HR PCP: TRACE;



...NORTHWEST ALABAMA...

CITY           SKY/WX    TMP DP  RH WIND       PRES   REMARKS
MUSCLE SHOALS  LGT RAIN  59  54  83 SW10      29.59R
6HR MIN TEMP:  59; 6HR MAX TEMP:  72; 6HR PCP:  0.07;



...MIDDLE TENNESSEE...

CITY           SKY/WX    TMP DP  RH WIND       PRES   REMARKS
NASHVILLE      PTCLDY    62  52  69 NW7       29.55R
6HR MIN TEMP:  58; 6HR MAX TEMP:  65; 6HR PCP: TRACE;

CLARKSVILLE    CLOUDY    62  53  72 NE5       29.53R
6HR MIN TEMP:  56; 6HR MAX TEMP:  65; 6HR PCP:  0.08;

COLUMBIA       PTCLDY    64  52  63 CALM      29.52R


...WESTERN KENTUCKY...

CITY           SKY/WX    TMP DP  RH WIND       PRES   REMARKS
PADUCAH        SUNNY     66  46  48 NW7       29.53R
6HR MIN TEMP:  65; 6HR MAX TEMP:  71; 6HR PCP: TRACE;

FORT CAMPBELL  HVY RAIN  61  55  82 N8        29.53R
6HR MIN TEMP:  56; 6HR MAX TEMP:  64; 6HR PCP:  0.09;



...CENTRAL ARKANSAS...

CITY           SKY/WX    TMP DP  RH WIND       PRES   REMARKS
LITTLE ROCK    MOSUNNY   68  46  45 W17G26    29.65R
6HR MIN TEMP:  64; 6HR MAX TEMP:  72;



SKY/WX REPORTED AS FAIR MEANS FEW OR NO CLOUDS BELOW
12 THOUSAND FEET.





USA.gov is the U.S. government's official web portal to all federal, state and local government web resources and services.